Tracking 34403 objects as of 12-Jun-2026
HD Live streaming from Space Station
objects crossing your sky now

DELTA 1 DEB

Track DELTA 1 DEB now!
10-day predictions


NORAD ID: 7198
Int'l Code: 1973-086FG
Perigee: 1,204.4 km
Apogee: 1,414.9 km
Inclination: 102.3 °
Period: 111.6 minutes
Semi major axis: 7680 km
RCS: 0.0332 m2 (small)
Launch date: November 6, 1973
Source: United States (US)
Launch site: AIR FORCE WESTERN TEST RANGE (AFWTR)

Note: This is SATELLITE DEBRIS
Your satellite tracking list
Your tracking list is empty




NASA's NSSDC Master Catalog

Two Line Element Set (TLE):
1 07198U 73086FG  26162.84912796  .00001079  00000-0  41695-2 0  9996
2 07198 102.3310 118.6519 0137091 174.2000 261.5497 12.89750366458034
Source of the keplerian elements: AFSPC